Terug naar catalogus

METEOR 2-8 DEB

ActiefPO
NORAD 36864·DEBRIS·🇷🇺 Russia

Gelanceerd Mar 25, 1982 vanaf Plesetsk Cosmodrome

Loading…

Volgende Passages (komende 24 uur)

TLE

VersSource: Space-Track

Epoch: Sep 14, 2026, 03:37 UTC

1 36864U 82025BB  26257.15091070  .00002430  00000-0  11668-2 0  9992
2 36864  82.5416 194.7865 0008000 358.7837   1.3321 14.18552333661103

Volg METEOR 2-8 DEB in realtime met AllMySat

Download on the App Store